Погода в Горицах

Россия / Вологодская область     59°52′10″N   38°15′33″E
темп.,
°C
ветер,
м/с
пор.,
м/с
влажн.,
%
обл.,
%
осадки,
мм/ч
давл.,
гПа
погр.,
м
4 июля, пн
пн400:00+16ссз117474 0.0 101711
03:00+15св118087 0.0 101711
06:00+17сз118420 0.3 101747
09:00+24зюз11565 0.3 1016525
12:00+28ююз11465 0.0 10161529
15:00+29ссз024273 0.0 10142304
18:00+26ю23530 0.0 1014643
21:00+19ююв23877 0.4 101450
5 июля, вт
вт500:00+17ююз22945 1.3 101418
03:00+16ю229633 1.7 101526
06:00+18ю249538 2.3 1015150
09:00+22ююз247598 2.8 1015482
12:00+27ююз35496 0.0 10131638
15:00+28ююз454438 0.0 10122272
18:00+26ю355516 0.0 1012970
21:00+18всв2297100 11.3 101275
6 июля, ср
ср600:00+17ююз239684 0.5 101257
03:00+16юз259870 0.5 1011101
06:00+18зсз1396100 0.0 1012127
09:00+22сз24672 0.0 1012657
12:00+24зсз345658 0.3 10121376
15:00+25зсз3444100 0.4 10122140
18:00+23сз245398 0.0 1012440
21:00+17с117279 0.0 101111
7 июля, чт
чт700:00+18всв1264100 0.0 101026
03:00+14сз3696100 1.5 1010170
06:00+14с2599100 3.6 1009273
09:00+13ссз2498100 4.8 1011313
12:00+17сз358090 0.1 1012725
15:00+22зсз2455100 0.1 10131549
18:00+22ююв2258100 0.3 1013742
21:00+18ю227899 0.3 101439
8 июля, пт
пт800:00+16ююз2474100 0.0 101582
03:00+16ююз2773100 0.0 1015180
06:00+17юз267411 0.0 1015183
09:00+21зюз35508 0.0 1015956
12:00+23зюз473910 0.0 10152183
15:00+24зюз4734100 0.0 10142692
18:00+22юз2353100 0.0 1014430
21:00+18ююз117067 0.0 101412